[[{"header":{"parameterUnit":"m.s-1","parameterCategory":1,"la1":30.2992,"la2":30.254,"lo1":-89.0895,"lo2":-89.0443,"dy":0.0025,"dx":0.0025,"nx":19,"ny":19,"refTime":"2026-04-23T09:00:00:Z","depth":0,"parameterNumber":2,"parameterNumberName":"U-component_of_WINDS"},"data":[0,0,0,-4.798,-4.7981,-4.8006,-4.8006,-4.8055,-4.8055,0,0,0,0,0,0,0,0,0,0,0,-4.7982,-4.7983,-4.798,-4.7981,-4.8006,-4.8006,-4.8055,-4.8055,0,0,0,0,0,0,0,0,0,0,0,-4.7982,-4.7983,-4.7984,-4.7981,-4.8006,-4.8006,-4.8054,-4.803,0,0,0,0,0,0,0,0,0,0,-4.8002,-4.8014,-4.7983,-4.7984,-4.7981,-4.8006,-4.8006,-4.8028,-4.8031,-4.805,0,-4.807,0,-4.8063,-4.806,-4.806,0,0,0,-4.7974,-4.8011,-4.8009,-4.7984,-4.7982,-4.8006,-4.7993,-4.803,-4.8033,-4.8054,-4.807,-4.8072,-4.8064,-4.806,-4.806,-4.8194,-4.8195,0,0,-4.7972,-4.7992,-4.8007,-4.8012,-4.8009,-4.7992,-4.7994,-4.8031,-4.805,-4.807,-4.8072,-4.8065,-4.806,-4.8061,-4.8193,-4.8195,0,0,0,-4.7973,-4.7991,-4.7988,-4.8011,-4.8014,-4.7993,-4.7995,-4.8048,-4.8046,-4.8073,-4.8066,-4.8061,-4.8062,-4.8192,-4.8194,-4.8259,0,0,0,-4.7972,-4.7992,-4.7988,-4.8,-4.8014,-4.8031,-4.8011,-4.8043,-4.8047,-4.8065,-4.8061,-4.8062,-4.8191,-4.8193,-4.8255,-4.8285,0,0,0,-4.7977,-4.7992,-4.7999,-4.8001,-4.8013,-4.803,-4.803,-4.8043,-4.8043,-4.806,-4.8062,-4.819,-4.8193,-4.8251,-4.8279,-4.8324,0,0,0,-4.7989,-4.8057,-4.8001,-4.8075,-4.8013,-4.8071,-4.8029,-4.8072,-4.8095,-4.8061,-4.8191,-4.8194,-4.825,-4.8275,-4.832,-4.8364,-4.8384,0,0,-4.8086,-4.807,-4.8112,-4.8062,-4.8135,-4.8066,-4.8149,-4.8151,-4.8136,-4.8176,-4.8179,-4.8256,-4.8279,-4.8323,-4.8499,-4.8515,0,0,0,-4.8149,-4.8179,-4.8195,-4.8217,-4.8222,-4.8227,-4.8215,-4.8216,-4.8249,-4.816,-4.8286,-4.8299,-4.8324,-4.8343,-4.8357,-4.8377,-4.8204,-4.8204,-4.8204,-4.8313,-4.8289,-4.8357,-4.8337,-4.836,-4.8348,-4.8364,-4.8363,-4.8333,-4.8363,-4.8373,-4.8483,-4.8506,-4.8517,-4.8538,-4.8397,-4.8398,-4.8398,-4.8398,-4.8451,-4.8489,-4.8449,-4.8499,-4.8475,-4.8517,-4.8509,-4.8487,-4.8522,-4.8473,-4.8494,-4.8439,-4.8536,-4.8552,-4.8403,-4.8402,-4.8401,-4.8401,-4.84,-4.8552,-4.8566,-4.8568,-4.8598,-4.8625,-4.8604,-4.864,-4.8617,-4.8595,-4.8617,-4.8624,-4.8623,-4.8616,-4.8623,-4.8623,-4.8623,-4.8624,-4.8624,-4.8624,-4.8655,-4.8655,-4.8688,-4.87,-4.8711,-4.8724,-4.8714,-4.8725,-4.8731,-4.8711,-4.8711,-4.8677,-4.8551,-4.8518,-4.863,-4.8629,-4.8628,-4.8628,-4.8627,-4.8798,-4.8762,-4.8814,-4.8826,-4.8837,-4.8865,-4.8837,-4.8861,-4.8867,-4.8886,-4.8848,-4.876,-4.8741,-4.873,-4.8702,-4.8855,-4.8855,-4.8855,-4.8855,-4.8881,-4.887,-4.8917,-4.8938,-4.8956,-4.8936,-4.8994,-4.8988,-4.8976,-4.8978,-4.8954,-4.8916,-4.8906,-4.8893,-4.8878,-4.8851,-4.9039,-4.9039,-4.9039,-4.8966,-4.8956,-4.9009,-4.8998,-4.9006,-4.9014,-4.9067,-4.9092,-4.9072,-4.9046,-4.8979,-4.8971,-4.891,-4.8892,-4.8861,-4.8838,-4.8789,0,0]},{"header":{"parameterUnit":"m.s-1","parameterCategory":1,"la1":30.2992,"la2":30.254,"lo1":-89.0895,"lo2":-89.0443,"dy":0.0025,"dx":0.0025,"nx":19,"ny":19,"refTime":"2026-04-23T09:00:00:Z","depth":0,"parameterNumber":3,"parameterNumberName":"V-component_of_WINDS"},"data":[0,0,0,3.8399,3.8399,3.8456,3.8456,3.8507,3.8507,0,0,0,0,0,0,0,0,0,0,0,3.837,3.837,3.8398,3.84,3.8456,3.8456,3.8507,3.8507,0,0,0,0,0,0,0,0,0,0,0,3.837,3.837,3.837,3.84,3.8456,3.8456,3.8507,3.8472,0,0,0,0,0,0,0,0,0,0,3.8421,3.8383,3.837,3.837,3.84,3.8456,3.8456,3.847,3.8474,3.8473,0,3.847,0,3.849,3.851,3.851,0,0,0,3.8408,3.838,3.8406,3.837,3.84,3.8455,3.8433,3.8473,3.8477,3.8478,3.8471,3.8474,3.8491,3.851,3.851,3.8482,3.8482,0,0,3.8405,3.8373,3.8403,3.8408,3.8399,3.8431,3.8434,3.8475,3.8465,3.8471,3.8475,3.8491,3.851,3.851,3.8483,3.8482,0,0,0,3.839,3.8371,3.8397,3.8406,3.8417,3.8432,3.8436,3.8464,3.8475,3.8476,3.8492,3.851,3.8511,3.8483,3.8483,3.8428,0,0,0,3.8389,3.8363,3.8395,3.8376,3.8416,3.8441,3.8423,3.8472,3.8478,3.8492,3.851,3.8511,3.8484,3.8483,3.843,3.8406,0,0,0,3.837,3.8361,3.8365,3.8374,3.8398,3.8441,3.8455,3.8474,3.8487,3.851,3.8511,3.8484,3.8483,3.8433,3.841,3.839,0,0,0,3.8341,3.8313,3.8363,3.8339,3.8397,3.8408,3.8455,3.8464,3.8477,3.851,3.8484,3.8483,3.8434,3.8413,3.8393,3.8368,3.8355,0,0,3.8288,3.8306,3.8294,3.8341,3.8335,3.8402,3.8388,3.8428,3.8458,3.8472,3.8472,3.843,3.8411,3.8391,3.8292,3.8281,0,0,0,3.8267,3.8257,3.8263,3.8275,3.8307,3.8333,3.8379,3.8395,3.8409,3.8459,3.8418,3.8408,3.8398,3.8387,3.8378,3.8371,3.8477,3.8477,3.8477,3.8145,3.8188,3.8171,3.822,3.8232,3.8282,3.8295,3.8324,3.8361,3.8351,3.8355,3.829,3.8276,3.827,3.8262,3.8345,3.8345,3.8345,3.8345,3.8071,3.8065,3.8119,3.8122,3.8167,3.817,3.8217,3.8244,3.8253,3.829,3.8283,3.8318,3.8257,3.8252,3.8341,3.8342,3.8342,3.8343,3.8343,3.7996,3.8001,3.8022,3.8046,3.806,3.8111,3.8118,3.8158,3.8196,3.8189,3.8198,3.8199,3.8205,3.8191,3.8191,3.819,3.819,3.819,3.819,3.7909,3.7935,3.7937,3.7971,3.7986,3.801,3.8062,3.8077,3.8104,3.8132,3.8132,3.817,3.8243,3.8261,3.8186,3.8187,3.8188,3.8188,3.8188,3.7817,3.7845,3.7848,3.7863,3.7907,3.7919,3.7972,3.7999,3.8018,3.802,3.8061,3.8108,3.8128,3.8136,3.815,3.8052,3.8052,3.8052,3.8052,3.7753,3.7768,3.7782,3.7803,3.7829,3.7878,3.7879,3.792,3.7966,3.798,3.8001,3.8024,3.8029,3.8046,3.8055,3.8069,3.7953,3.7953,3.7953,3.7699,3.772,3.7713,3.7761,3.78,3.7832,3.7835,3.7857,3.7915,3.795,3.7992,3.7996,3.8034,3.8044,3.8077,3.8091,3.8117,0,0]}]]